Volver al catálogo

STARLINK-31919

ActivoComunicacionesVLEO
NORAD 59880·PAYLOAD·🇺🇸 United States

Lanzado May 24, 2024 desde Cape Canaveral Space Force Station

Loading…

Próximos Pases (próximas 24 horas)

TLE

ActualizadoSource: CelesTrak SupGP

Época: Sep 15, 2026, 02:40 UTC

1 59880C 24098Y   26258.11159722  .00015077  00000+0  54612-3 0  2582
2 59880  42.9999 288.2823 0001319 255.3599 164.4084 15.27569034    19

Sigue STARLINK-31919 en tiempo real con AllMySat

Download on the App Store